M.P.E.C. 2018-G33 Issued 2018 Apr. 8, 11:25 UT The Minor Planet Electronic Circulars contain information on unusual minor planets and routine data on comets. They are published on behalf of Division F of the International Astronomical Union by the Minor Planet Center, Smithsonian Astrophysical Observatory, Cambridge, MA 02138, U.S.A. Prepared using the Tamkin Foundation Computer Network MPC@CFA.HARVARD.EDU URL https://www.minorplanetcenter.net/ ISSN 1523-6714 2018 GM Observations: K18G00M* C2018 04 06.25705 11 38 34.86 +41 42 42.5 18.8 GUEG033G96 K18G00M C2018 04 06.26387 11 38 27.02 +41 42 25.5 19.1 GUEG033G96 K18G00M C2018 04 06.27007 11 38 19.86 +41 42 09.8 19.1 GUEG033G96 K18G00M C2018 04 06.27566 11 38 13.43 +41 41 56.4 19.7 GUEG033G96 K18G00M C2018 04 06.31907 11 37 23.32 +41 40 04.1 18.6 GUEG033I52 K18G00M C2018 04 06.31937 11 37 22.98 +41 40 02.9 UEG033I52 K18G00M C2018 04 06.31967 11 37 22.59 +41 40 03.2 UEG033I52 K18G00M C2018 04 06.35803 11 36 38.31 +41 38 19.9 19.1 GUEG033I52 K18G00M C2018 04 06.35845 11 36 37.74 +41 38 18.5 18.3 GUEG033I52 K18G00M C2018 04 06.35886 11 36 37.26 +41 38 18.5 18.5 GUEG033I52 K18G00M C2018 04 06.35927 11 36 36.82 +41 38 15.8 18.8 GUEG033I52 K18G00M KC2018 04 06.78486 11 28 29.28 +41 17 58.8 18.4 RqEG033K61 K18G00M KC2018 04 06.78607 11 28 27.87 +41 17 55.1 18.5 RqEG033K61 K18G00M KC2018 04 06.78694 11 28 26.83 +41 17 52.6 18.5 RqEG033K61 K18G00M KC2018 04 06.78772 11 28 25.90 +41 17 50.1 18.5 RqEG033K61 K18G00M KC2018 04 06.78841 11 28 25.07 +41 17 48.0 18.6 RqEG033K61 K18G00M C2018 04 06.78976 11 28 23.51 +41 17 45.9 qEG033246 K18G00M C2018 04 06.79027 11 28 23.32 +41 17 43.3 qEG033246 K18G00M C2018 04 06.79097 11 28 22.16 +41 17 42.4 qEG033246 K18G00M C2018 04 06.79228 11 28 20.50 +41 17 37.0 19.5 RqEG033246 K18G00M C2018 04 06.79262 11 28 20.13 +41 17 36.2 qEG033246 K18G00M KC2018 04 06.80175 11 28 09.03 +41 17 07.0 18.9 RUEG033113 K18G00M KC2018 04 06.80377 11 28 06.57 +41 17 01.1 18.9 RUEG033113 K18G00M KC2018 04 06.80580 11 28 04.17 +41 16 54.9 18.6 RUEG033113 K18G00M KC2018 04 06.80624 11 28 03.71 +41 16 58.8 19.0 RrEG033106 K18G00M KC2018 04 06.80782 11 28 01.72 +41 16 48.7 18.6 RUEG033113 K18G00M KC2018 04 06.80882 11 28 00.64 +41 16 51.1 18.9 RrEG033106 K18G00M KC2018 04 06.81164 11 27 57.20 +41 16 42.8 19.2 RrEG033106 K18G00M KC2018 04 06.81401 11 27 54.18 +41 16 29.8 19.0 VSEG033C43 K18G00M KC2018 04 06.81618 11 27 51.54 +41 16 23.0 18.9 VSEG033C43 K18G00M KC2018 04 06.81847 11 27 48.78 +41 16 15.7 18.9 VSEG033C43 K18G00M KC2018 04 06.81904 11 27 48.51 +41 16 14.9 18.7 RqEG033A17 K18G00M KC2018 04 06.82700 11 27 38.98 +41 15 54.4 19.1 GUEG033K38 K18G00M KC2018 04 06.82709 11 27 38.76 +41 15 50.3 18.9 RqEG033A17 K18G00M C2018 04 06.82733 11 27 38.14 +41 15 52.5 18.8 RqEG033246 K18G00M C2018 04 06.82814 11 27 37.20 +41 15 50.0 qEG033246 K18G00M C2018 04 06.82845 11 27 36.78 +41 15 48.8 qEG033246 K18G00M C2018 04 06.82944 11 27 35.68 +41 15 46.0 qEG033246 K18G00M KC2018 04 06.83601 11 27 28.03 +41 15 23.1 19.2 RqEG033A17 K18G00M KC2018 04 06.84279 11 27 19.78 +41 15 05.6 19.5 VSEG033151 K18G00M KC2018 04 06.84574 11 27 16.22 +41 14 55.2 19.3 VSEG033151 K18G00M KC2018 04 06.84589 11 27 16.04 +41 15 00.0 19.6 UEG033K63 K18G00M KC2018 04 06.84648 11 27 15.15 +41 14 51.5 19.5 GUEG033K87 K18G00M KC2018 04 06.84672 11 27 15.03 +41 14 52.3 19.3 VSEG033151 K18G00M KC2018 04 06.84746 11 27 14.15 +41 14 52.3 19.1 GUEG033K38 K18G00M KC2018 04 06.84770 11 27 13.85 +41 14 49.6 19.1 VSEG033151 K18G00M KC2018 04 06.84947 11 27 11.75 +41 14 46.3 UEG033587 K18G00M KC2018 04 06.85039 11 27 10.61 +41 14 43.4 19.1 GUEG033587 K18G00M KC2018 04 06.85432 11 27 05.50 +41 14 32.4 18.9 VSEG033L01 K18G00M KC2018 04 06.85535 11 27 04.29 +41 14 29.5 18.8 VSEG033L01 K18G00M KC2018 04 06.85637 11 27 03.03 +41 14 26.4 18.9 VSEG033L01 K18G00M KC2018 04 06.85737 11 27 01.78 +41 14 23.1 18.9 VSEG033L01 K18G00M KC2018 04 06.86112 11 26 57.43 +41 14 06.5 18.8 GUEG033K87 K18G00M KC2018 04 06.86498 11 26 52.75 +41 13 53.7 19.3 GUEG033K87 K18G00M KC2018 04 06.86631 11 26 51.14 +41 13 56.5 18.9 RUEG033104 K18G00M KC2018 04 06.86860 11 26 48.35 +41 13 50.2 17.6 UEG033K63 K18G00M KC2018 04 06.87037 11 26 46.37 +41 13 41.7 18.9 GUEG033K38 K18G00M KC2018 04 06.87049 11 26 46.05 +41 13 43.3 19.3 RUEG033104 K18G00M KC2018 04 06.87194 11 26 44.37 +41 13 34.4 19.2 VtEG033198 K18G00M KC2018 04 06.87364 11 26 42.26 +41 13 34.0 19.9 UEG033K63 K18G00M KC2018 04 06.87396 11 26 41.89 +41 13 27.7 19.3 VtEG033198 K18G00M KC2018 04 06.87467 11 26 40.91 +41 13 30.1 19.4 RUEG033104 K18G00M KC2018 04 06.87543 11 26 40.09 +41 13 23.3 19.1 VtEG033198 K18G00M KC2018 04 06.87690 11 26 38.31 +41 13 18.3 19.2 VtEG033198 K18G00M KC2018 04 06.87818 11 26 36.73 +41 13 13.8 19.2 VtEG033198 K18G00M KC2018 04 06.87983 11 26 34.70 +41 13 07.9 19.3 VtEG033198 K18G00M KC2018 04 06.88166 11 26 32.47 +41 13 02.1 19.3 VtEG033198 K18G00M KC2018 04 06.89604 11 26 15.60 +41 12 12.9 UEG033J95 K18G00M KC2018 04 06.89886 11 26 12.15 +41 12 03.6 UEG033J95 K18G00M KC2018 04 06.90111 11 26 09.41 +41 11 57.1 19.1 GUEG033J95 K18G00M KC2018 04 06.90521 11 26 03.63 +41 11 46.4 19.0 GUEG033K87 K18G00M KC2018 04 06.90912 11 25 58.86 +41 11 33.4 18.5 GUEG033K87 K18G00M KC2018 04 06.91678 11 25 49.58 +41 11 14.0 18.6 GUEG033203 K18G00M KC2018 04 06.91888 11 25 46.59 +41 11 03.2 20.2 VSEG033C47 K18G00M KC2018 04 06.92279 11 25 41.79 +41 10 50.4 18.9 VSEG033C47 K18G00M KC2018 04 06.92388 11 25 40.91 +41 10 50.9 18.9 GUEG033203 K18G00M KC2018 04 06.92670 11 25 37.01 +41 10 37.7 19.9 VSEG033C47 K18G00M KC2018 04 06.93180 11 25 31.10 +41 10 19.1 19.1 GUEG033K87 K18G00M KC2018 04 06.93354 11 25 28.62 +41 10 14.5 20.1 VSEG033C47 K18G00M KC2018 04 07.01830 11 23 44.56 +41 05 31.9 19.1 RUEG033K65 K18G00M KC2018 04 07.03303 11 23 26.45 +41 04 40.0 19.4 RUEG033K65 K18G00M KC2018 04 07.05005 11 23 05.50 +41 03 39.5 18.7 RUEG033K65 K18G00M C2018 04 07.13235 11 21 31.62 +40 59 14.0 18.0 GUEG033I52 K18G00M C2018 04 07.13265 11 21 31.21 +40 59 12.7 UEG033I52 K18G00M C2018 04 07.13295 11 21 30.90 +40 59 11.9 18.7 GUEG033I52 K18G00M C2018 04 07.13324 11 21 30.54 +40 59 10.8 19.4 GUEG033I52 K18G00M C2018 04 07.81495 11 07 06.72 +40 13 32.5 19.5 RqEG033246 K18G00M C2018 04 07.81529 11 07 06.22 +40 13 30.9 qEG033246 K18G00M C2018 04 07.81546 11 07 06.07 +40 13 29.7 qEG033246 K18G00M C2018 04 07.81611 11 07 05.15 +40 13 27.5 qEG033246 K18G00M C2018 04 07.81626 11 07 04.97 +40 13 27.3 qEG033246 K18G00M KC2018 04 07.88264 11 05 36.48 +40 08 30.4 19.2 VqEG033595 K18G00M KC2018 04 07.88847 11 05 28.69 +40 08 03.5 18.9 VqEG033595 K18G00M KC2018 04 07.89420 11 05 21.07 +40 07 36.6 qEG033595 K18G00M C2018 04 08.11961 11 00 25.64 +39 49 42.1 18.7 GUEG033I52 K18G00M C2018 04 08.11979 11 00 25.37 +39 49 41.7 19.5 GUEG033I52 K18G00M C2018 04 08.11997 11 00 25.12 +39 49 41.1 19.3 GUEG033I52 K18G00M C2018 04 08.12015 11 00 24.88 +39 49 39.6 19.3 GUEG033I52 K18G00M C2018 04 08.28187 10 56 41.77 +39 35 55.8 18.8 GUEG033G96 K18G00M C2018 04 08.28708 10 56 34.55 +39 35 28.0 18.6 GUEG033G96 K18G00M C2018 04 08.29230 10 56 27.30 +39 34 59.7 18.8 GUEG033G96 Observer details: 104 San Marcello Pistoiese. Observers P. Bacci, M. Maestripieri, M. D. Grazia. Measurers P. Bacci, L. Tesi, G. Fagioli. 0.60-m f/4 reflector + CCD. 106 Crni Vrh. Observer B. Mikuz. 0.6-m f/3.3 Deltagraph + CCD. 113 Volkssternwarte Drebach, Schoenbrunn. Observers G. Lehmann, M. Lehmann. 0.5-m f/4.6 reflector + CCD. 151 Eschenberg Observatory, Winterthur. Observer M. Griesser. 0.60-m f/3.8 astrograph + CCD. 198 Wildberg. Observer R. Apitzsch. 0.35-m f/3.1 reflector + CCD. 203 GiaGa Observatory. Observers S. Foglia, G. Galli. Measurer G. Galli. 0.28-m f/6.8 Schmidt-Cassegrain + CCD. 246 Klet Observatory-KLENOT. Observers M. Tichy, J. Ticha. Measurer M. Tichy. 1.06-m KLENOT Telescope + CCD. 587 Sormano. Observers A. Fumagalli, F. Manca, I. Proserpio, P. Sicoli, A. Testa. Measurer P. Sicoli. 0.5-m f/6.8 reflector + CCD. 595 Farra d'Isonzo. Observers G. Panterotto, E. Pettarin, F. Piani. Measurer E. Pettarin. 0.61-m f/4.0 reflector + CCD. A17 Guidestar Observatory, Weinheim. Observers M. Emmerich, S. Melchert. 0.36-m f/6 Schmidt-Cassegrain + CCD. C43 Hoyerswerda. Observer P. Lindner. 0.30-m f/6.3 Schmidt-Cassegrain + CCD. C47 Nonndorf. Observer G. Dangl. 0.25-m f/4.8 reflector + CCD. G96 Mt. Lemmon Survey. Observers G. J. Leonard, A. R. Gibbs, B. J. Gray. Measurers B. M. Africano, E. J. Christensen, D. C. Fuls, A. R. Gibbs, A. D. Grauer, J. A. Johnson, R. A. Kowalski, S. M. Larson, G. J. Leonard, R. L. Seaman, F. C. Shelly. 1.5-m reflector + 10K CCD. I52 Steward Observatory, Mt. Lemmon Station. Observer B. M. Africano. Measurers B. M. Africano, E. J. Christensen, D. C. Fuls, A. R. Gibbs, A. D. Grauer, J. A. Johnson, R. A. Kowalski, S. M. Larson, G. J. Leonard, R. L. Seaman, F. C. Shelly. 1.0-m reflector + CCD. J95 Great Shefford. Observer P. Birtwhistle. 0.40-m f/6.0 Schmidt-Cassegrain + CCD. K38 M57 Observatory, Saltrio. Observer G. Baj. 0.30-m f/5.5 Ritchey-Chretien + CCD. K61 Rokycany Observatory. Observer M. Adamovsky. 0.51-m f/6.8 reflector + CCD. K63 G. Pascoli Observatory, Castelvecchio Pascoli. Observer R. Bacci. 0.40-m f/3.2 Newtonian reflector + CCD. K65 Cesena. Observer V. Tinella. 0.40-m f/7 Schmidt-Cassegrain + CCD. K87 Dettelbach Vineyard Observatory. Observer B. Haeusler. 0.30-m Schmidt-Cassegrain + CCD. L01 Visnjan Observatory, Tican. Observer K. Korlevic. 1.0-m f/2.9 reflector + CCD. Orbital elements: 2018 GM PHA, Earth MOID = 0.0151 AU Epoch 2018 Mar. 23.0 TT = JDT 2458200.5 MPC M 326.94730 (2000.0) P Q n 0.45611317 Peri. 255.73869 +0.02977597 +0.98379800 a 1.6714279 Node 18.88954 -0.56744816 +0.16224213 e 0.5527873 Incl. 33.09850 -0.82287057 -0.07628231 P 2.16 H 21.6 G 0.15 U 7 Residuals in seconds of arc 180406 G96 0.2+ 0.3- 180406 246 0.1+ 0.2+ 180406 J95 0.4+ 0.8- 180406 G96 0.4+ 0.3- 180406 246 0.6+ 0.2+ 180406 J95 0.5+ 0.2- 180406 G96 0.2+ 0.6- 180406 246 0.1+ 0.0 180406 K87 0.1- 0.3- 180406 G96 0.3+ 0.1+ 180406 246 1.2+ 0.2+ 180406 K87 0.0 0.7- 180406 I52 0.5+ 0.6- 180406 A17 1.1+ 0.7- 180406 203 0.3+ 0.2- 180406 I52 0.6+ 1.0- 180406 151 0.0 0.3+ 180406 C47 0.1+ 0.1- 180406 I52 0.1+ 0.1+ 180406 151 0.2+ 1.1- 180406 C47 0.0 0.1- 180406 I52 1.0+ 0.7- 180406 K63 0.4+ 0.1+ 180406 203 0.6+ 0.2- 180406 I52 0.1+ 1.0- 180406 K87 0.0 0.2- 180406 C47 0.0 0.0 180406 I52 0.0 0.1+ 180406 151 0.2+ 1.0- 180406 K87 0.1- 1.1- 180406 I52 0.4+ 1.4- 180406 K38 0.4- 0.8- 180406 C47 0.1- 0.6- 180406 K61 0.8- 0.2+ 180406 151 0.3+ 0.6- 180407 K65 0.4+ 0.4- 180406 K61 0.3- 0.0 180406 587 0.7+ 0.3- 180407 K65 0.7+ 0.5- 180406 K61 0.3- 0.1+ 180406 587 0.5+ 0.4- 180407 K65 0.7+ 0.5- 180406 K61 0.2- 0.1- 180406 L01 0.0 0.7- 180407 I52 0.7+ 0.2+ 180406 K61 0.2- 0.1- 180406 L01 0.5+ 0.4- 180407 I52 0.3+ 0.1- 180406 246 0.4+ 0.7+ 180406 L01 0.3+ 0.3- 180407 I52 1.0+ 0.1+ 180406 246 (5.2+ 0.4-) 180406 L01 0.1- 0.5- 180407 I52 1.0+ 0.0 180406 246 1.6+ 0.8+ 180406 K87 0.7+ 0.1+ 180407 246 0.2+ 0.3- 180406 246 0.7+ 0.7- 180406 K87 0.8+ 0.6- 180407 246 0.3- 0.3- 180406 246 1.1+ 0.5- 180406 104 0.2+ 0.2- 180407 246 0.5+ 0.8- 180406 113 0.1+ 0.3- 180406 K63 0.1- 0.8+ 180407 246 0.1- 0.1- 180406 113 0.2- 0.2- 180406 K38 0.7+ 0.3- 180407 246 0.1+ 0.3+ 180406 113 0.3+ 0.3- 180406 104 0.2+ 0.3- 180407 595 0.3- 0.1- 180406 106 0.4- 0.2- 180406 198 0.5+ 0.7+ 180407 595 0.0 0.1- 180406 113 0.2+ 0.4- 180406 K63 0.6+ 0.4+ 180407 595 0.7+ 0.4- 180406 106 0.1+ 0.2- 180406 198 0.3+ 0.4+ 180408 I52 0.9+ 0.9- 180406 106 0.3- 0.0 180406 104 0.2- 0.4- 180408 I52 0.6+ 0.4- 180406 C43 0.5+ 0.2- 180406 198 0.2+ 0.6+ 180408 I52 0.5+ 0.1- 180406 C43 0.2+ 0.4- 180406 198 0.3+ 0.2+ 180408 I52 0.6+ 0.8- 180406 C43 0.3+ 0.7- 180406 198 0.1+ 0.3- 180408 G96 0.3+ 0.4- 180406 A17 0.7+ 0.4- 180406 198 0.1- 1.0- 180408 G96 0.5+ 0.3- 180406 K38 0.2- 1.1- 180406 198 0.1- 1.0- 180408 G96 0.4+ 0.5- 180406 A17 0.4+ 0.7- 180406 J95 0.6+ 0.4- Ephemeris: 2018 GM a,e,i = 1.67, 0.55, 33 q = 0.7475 Date TT R. A. (2000) Decl. Delta r Elong. Phase V 2018 03 09 14 15 56.1 +36 42 08 0.4777 1.3405 127.9 35.7 22.1 ... 2018 03 24 13 45 36.5 +40 41 09 0.2861 1.2100 132.9 37.1 20.8 ... 2018 04 01 12 52 27.8 +42 38 48 0.1930 1.1394 132.9 39.9 19.9 ... 2018 04 07 11 24 10.5 +41 06 48 0.1332 1.0866 127.2 47.2 19.2 2018 04 08 11 03 02.8 +39 59 30 0.1249 1.0779 125.1 49.4 19.1 2018 04 09 10 40 03.5 +38 25 18 0.1174 1.0691 122.5 52.2 19.0 ... 2018 04 15 08 07 54.3 +17 10 55 0.09661 1.0173 95.7 78.9 19.3 ... 2018 04 23 05 57 36.4 -12 34 02 0.1427 0.9506 63.7 108.6 21.3 ... 2018 05 08 04 28 59.4 -26 36 29 0.3043 0.8404 48.8 115.4 23.2 A. U. Tomatic (C) Copyright 2018 MPC M.P.E.C. 2018-G33
